TimeEST,TemperatureF,Dew PointF,Humidity,Sea Level PressureIn,VisibilityMPH,Wind Direction,Wind SpeedMPH,Gust SpeedMPH,PrecipitationIn,Events,Conditions,WindDirDegrees,DateUTC
12:55 AM,36.9,28.2,71,29.93,10.0,North,3.5,-,N/A,,Overcast,10,2012-11-07 05:55:00
1:55 AM,36.5,29.1,75,29.92,10.0,Calm,Calm,-,N/A,,Overcast,0,2012-11-07 06:55:00
2:55 AM,36.7,28.2,71,29.92,10.0,Calm,Calm,-,N/A,,Overcast,0,2012-11-07 07:55:00
3:55 AM,36.0,28.0,73,29.91,10.0,NNE,3.5,-,N/A,,Overcast,20,2012-11-07 08:55:00
4:55 AM,36.0,28.4,74,29.92,10.0,NNE,4.6,-,N/A,,Overcast,20,2012-11-07 09:55:00
5:55 AM,35.8,27.7,72,29.93,10.0,NNE,4.6,-,N/A,,Mostly Cloudy,20,2012-11-07 10:55:00
6:55 AM,34.2,28.0,78,29.94,10.0,Calm,Calm,-,N/A,,Scattered Clouds,0,2012-11-07 11:55:00
7:55 AM,32.7,27.7,82,29.96,10.0,Calm,Calm,-,N/A,,Mostly Cloudy,0,2012-11-07 12:55:00
8:55 AM,37.4,28.0,69,29.98,10.0,Variable,3.5,-,N/A,,Scattered Clouds,0,2012-11-07 13:55:00
9:55 AM,41.5,28.9,61,29.98,10.0,NNW,3.5,-,N/A,,Mostly Cloudy,330,2012-11-07 14:55:00
10:55 AM,46.8,27.7,47,29.99,10.0,North,8.1,-,N/A,,Mostly Cloudy,10,2012-11-07 15:55:00
11:55 AM,49.8,28.8,44,29.99,10.0,NE,8.1,-,N/A,,Partly Cloudy,40,2012-11-07 16:55:00
12:55 PM,51.8,29.3,42,29.97,10.0,Calm,Calm,-,N/A,,Partly Cloudy,0,2012-11-07 17:55:00
1:55 PM,52.9,28.2,39,29.96,10.0,North,6.9,-,N/A,,Clear,10,2012-11-07 18:55:00
2:55 PM,53.1,28.6,39,29.97,10.0,NNE,6.9,-,N/A,,Clear,20,2012-11-07 19:55:00
3:55 PM,52.2,30.4,43,29.99,10.0,NNW,11.5,-,N/A,,Clear,340,2012-11-07 20:55:00
4:55 PM,50.0,30.6,47,30.01,10.0,NNW,6.9,-,N/A,,Clear,340,2012-11-07 21:55:00
5:55 PM,45.7,34.0,64,30.04,10.0,NNW,8.1,-,N/A,,Clear,330,2012-11-07 22:55:00
6:55 PM,43.9,33.6,67,30.08,10.0,NNW,10.4,-,N/A,,Clear,330,2012-11-07 23:55:00
7:55 PM,41.9,33.1,71,30.09,10.0,NNW,6.9,-,N/A,,Clear,340,2012-11-08 00:55:00
8:55 PM,39.0,30.4,71,30.11,10.0,North,4.6,-,N/A,,Clear,350,2012-11-08 01:55:00
9:55 PM,35.8,29.5,78,30.13,10.0,North,3.5,-,N/A,,Clear,10,2012-11-08 02:55:00
10:55 PM,33.4,28.4,82,30.13,10.0,Calm,Calm,-,N/A,,Clear,0,2012-11-08 03:55:00
11:55 PM,33.4,29.1,84,30.13,10.0,Calm,Calm,-,N/A,,Clear,0,2012-11-08 04:55:00